Weather History for KSTJ - July, 2012

Change the Weather History Date:

Wednesday, July 18, 2012

  Actual Average Record
Temperature  
Mean Temperature 89 °F 77 °F  
Max Temperature 102 °F 87 °F 106 °F (1934)
Min Temperature 76 °F 67 °F 53 °F (2009)
Degree Days  
Heating Degree Days 0 0  
Month to date heating degree days 0 0  
Since 1 June heating degree days 8 8  
Since 1 July heating degree days 0 0  
Cooling Degree Days 24 12  
Month to date cooling degree days 318 214  
Year to date cooling degree days 936 594  
Since 1 June cooling degree days 669 481  
Growing Degree Days 40 (Base 50)    
Moisture  
Dew Point 66 °F    
Average Humidity 49    
Maximum Humidity 71    
Minimum Humidity 27    
Precipitation  
Precipitation 0.00 in 0.18 in 1.83 in (1971)
Month to date precipitation 0.02 2.89  
Year to date precipitation 14.87 20.02  
Sea Level Pressure  
Sea Level Pressure 29.82 in    
Wind  
Wind Speed 7 mph (SSW)    
Max Wind Speed 18 mph    
Max Gust Speed 24 mph    
Visibility 10 miles    
Events      
T = Trace of Precipitation, MM = Missing Value Source: NWS Daily Summary

Daily Weather History Graph

Daily Weather History Graph

Search for Another Location

Airport or City:

Trip Planner

Search our weather history database for the weather conditions in past years. The results will help you decide how hot, cold, wet, or windy it might be!

Date:

Astronomy

Jul. 18, 2012 Rise Set
Actual Time 6:06 AM CDT 8:44 PM CDT
Civil Twilight 5:35 AM CDT 9:15 PM CDT
Nautical Twilight 4:56 AM CDT 9:54 PM CDT
Astronomical Twilight 4:12 AM CDT 10:38 PM CDT
Moon 5:41 AM CDT (7/18) 8:15 PM CDT (7/18)
Length of Visible Light 15h 40m
Length of Day
14h 37m
Waning Crescent, 0% of the Moon is Illuminated
Jul 18
Waning Crescent
Jul 18
New
Jul 26
First Quarter
Aug 1
Full
Aug 9
Last Quarter

Hourly Weather History & Observations

Time (CDT) Temp. Heat Index Dew Point Humidity Pressure Visibility Wind Dir Wind Speed Gust Speed Precip Events Conditions
12:53 AM 78.1 °F - 66.9 °F 68% 29.83 in 10.0 mi South 4.6 mph - N/A   Clear
1:53 AM 79.0 °F - 64.9 °F 62% 29.82 in 10.0 mi South 5.8 mph - N/A   Clear
2:53 AM 78.1 °F - 66.0 °F 66% 29.82 in 10.0 mi South 4.6 mph - N/A   Clear
3:53 AM 79.0 °F - 64.9 °F 62% 29.81 in 10.0 mi South 6.9 mph - N/A   Clear
4:53 AM 77.0 °F - 66.0 °F 69% 29.83 in 10.0 mi South 4.6 mph - N/A   Clear
5:53 AM 78.1 °F - 64.9 °F 64% 29.84 in 10.0 mi South 6.9 mph - N/A   Clear
6:53 AM 80.1 °F 81.9 °F 64.9 °F 60% 29.85 in 10.0 mi South 6.9 mph - N/A   Mostly Cloudy
7:53 AM 82.0 °F 84.1 °F 66.0 °F 58% 29.86 in 10.0 mi SSW 8.1 mph - N/A   Clear
8:53 AM 84.9 °F 88.2 °F 68.0 °F 57% 29.87 in 10.0 mi South 10.4 mph - N/A   Scattered Clouds
9:53 AM 88.0 °F 92.1 °F 69.1 °F 53% 29.87 in 10.0 mi SSW 8.1 mph - N/A   Scattered Clouds
10:53 AM 91.0 °F 95.2 °F 68.0 °F 47% 29.86 in 10.0 mi SSW 15.0 mph 20.7 mph N/A   Clear
11:53 AM 93.9 °F 97.5 °F 66.9 °F 41% 29.86 in 10.0 mi SSW 13.8 mph - N/A   Clear
12:53 PM 97.0 °F 100.4 °F 66.0 °F 36% 29.84 in 10.0 mi SSW 10.4 mph - N/A   Clear
1:53 PM 100.4 °F 104.9 °F 66.2 °F 33% 29.86 in 10.0 mi SW 9.2 mph - N/A   Clear
2:53 PM 100.9 °F 104.0 °F 64.0 °F 30% 29.82 in 10.0 mi SW 11.5 mph - N/A   Clear
3:53 PM 102.0 °F 104.6 °F 63.0 °F 28% 29.81 in 10.0 mi SW 12.7 mph - N/A   Clear
4:53 PM 100.9 °F 104.0 °F 64.0 °F 30% 29.78 in 10.0 mi SSW 10.4 mph - N/A   Clear
5:53 PM 99.0 °F 102.3 °F 64.9 °F 33% 29.76 in 10.0 mi SSW 8.1 mph - N/A   Clear
6:53 PM 96.1 °F 101.6 °F 69.1 °F 41% 29.75 in 10.0 mi SSW 4.6 mph - N/A   Clear
7:53 PM 95.0 °F 101.3 °F 70.0 °F 44% 29.76 in 10.0 mi Calm Calm - N/A   Partly Cloudy
8:53 PM 89.1 °F 89.0 °F 61.0 °F 39% 29.79 in 10.0 mi SW 16.1 mph 23.0 mph N/A   Scattered Clouds
9:53 PM 84.9 °F 85.9 °F 63.0 °F 48% 29.81 in 10.0 mi SW 4.6 mph - N/A   Clear
10:53 PM 82.0 °F 84.5 °F 66.9 °F 60% 29.84 in 10.0 mi Calm Calm - N/A   Partly Cloudy
11:53 PM 79.0 °F - 68.0 °F 69% 29.84 in 10.0 mi Calm Calm - N/A   Clear